Regional Weather Roundup
Issued by NWS

Home | Current Version | Previous Version | Graphics & Text | Print | Product List | Glossary On
Versions: 1 2 3 4 5 6 7 8 9 10 11 12 13 14 15 16 17 18 19 20 21 22 23 24 25 26 27 28 29 30 31 32 33 34 35 36 37 38 39 40 41 42 43 44 45 46 47 48 49 50
000
ASUS43 KLSX 301059
RWRMO

WEATHER SUMMARY FOR MISSOURI
NATIONAL WEATHER SERVICE SPRINGFIELD MO
600 AM CDT SAT AUG 30 2014

NOTE: "FAIR" INDICATES FEW OR NO CLOUDS BELOW 12,000 FEET WITH NO
       SIGNIFICANT WEATHER AND/OR OBSTRUCTIONS TO VISIBILITY.
       CURRENT SKY AND/OR WEATHER CONDITIONS ARE NOT AVAILABLE FOR
       CHILLICOTHE AND FARMINGTON.

MOZ001>031-035>038-043-044-053-054-301200-
...NORTHERN AND WESTERN MISSOURI...

CITY           SKY/WX    TMP DP  RH WIND       PRES   REMARKS
KANSAS CTY INT CLEAR     66  65  96 SW6       29.90R
KANSAS C DTWN  CLEAR     72  67  84 SW3       29.89R
LEE`S SUMMIT   CLEAR     70  66  87 SW7       29.91R
ST JOSEPH      CLEAR     64  63  96 S5        29.89R
KIRKSVILLE     CLEAR     68  66  93 SW8       29.89R

$$
MOZ066>068-077>081-088>096-101>105-301200-
...SOUTHWEST MISSOURI...

CITY           SKY/WX    TMP DP  RH WIND       PRES   REMARKS
SPRINGFIELD    MOCLDY    71  67  87 S13       29.96R
JOPLIN         CLEAR     72  69  90 S8        29.94S

$$
MOZ032>034-039>042-045>050-055>058-069>072-301200-
...CENTRAL MISSOURI...

CITY           SKY/WX    TMP DP  RH WIND       PRES   REMARKS
COLUMBIA       PTCLDY    68  67  96 S7        29.91S
JEFFERSON CITY PTCLDY    71  68  90 SE6       29.91S
ROLLA          CLEAR     69  66  90 S9        29.94S
SEDALIA        PTCLDY    73  66  78 SW8       29.91S
OSAGE BEACH    PTCLDY    70  66  88 SW3       29.94S

$$
MOZ051-052-059>065-301200-
...EAST CENTRAL MISSOURI...

CITY           SKY/WX    TMP DP  RH WIND       PRES   REMARKS
ST LOUIS INTL  MOCLDY    76  67  73 S9        29.93S
SPIRIT OF STL  PTCLDY    72  68  87 S3        29.92R
ST CHARLES     MOCLDY    71  69  93 CALM      29.92R

$$
MOZ072>076-082>087-097>100-106>115-301200-
...SOUTH CENTRAL AND SOUTHEAST MISSOURI...

CITY           SKY/WX    TMP DP  RH WIND       PRES   REMARKS
CAPE GIRARDEAU LGT RAIN  73  70  90 CALM      29.99R
FARMINGTON     CLOUDY    72  68  88 S6        30.00R
POPLAR BLUFF   CLOUDY    72  69  90 W7        29.99R
WEST PLAINS    MOCLDY    71  67  87 SW5       30.00S

$$


USA.gov is the U.S. government's official web portal to all federal, state and local government web resources and services.